| time (UTC) | temp F | wind direction | speed MPH | gust MPH | rain 1hr in | rain 24hr in | rain mn in | humidity % | barometer mb |
| 20260906171514 | 57 | 40 | 0.0 | 2.0 | 0.05 | 0.18 | 0.18 | 95 | 1017.1 |
| 20260906170021 | 57 | 257 | 0.0 | 0.0 | 0.04 | 0.17 | 0.17 | 95 | 1017.0 |
| 20260906164526 | 57 | 257 | 0.0 | 0.0 | 0.04 | 0.16 | 0.16 | 95 | 1017.0 |
| 20260906163030 | 57 | 257 | 0.0 | 0.0 | 0.03 | 0.14 | 0.14 | 95 | 1017.0 |
| 20260906161510 | 56 | 257 | 0.0 | 0.0 | 0.04 | 0.13 | 0.13 | 95 | 1017.2 |
| 20260906160016 | 56 | 303 | 0.0 | 0.0 | 0.05 | 0.13 | 0.13 | 95 | 1017.1 |
| 20260906154523 | 56 | 229 | 2.0 | 3.0 | 0.06 | 0.12 | 0.12 | 95 | 1016.9 |
| 20260906153032 | 56 | 228 | 0.0 | 2.0 | 0.06 | 0.11 | 0.11 | 95 | 1017.0 |
| 20260906151530 | 55 | 244 | 0.0 | 2.0 | 0.05 | 0.09 | 0.09 | 95 | 1017.0 |
| 20260906150013 | 55 | 118 | 0.0 | 0.0 | 0.04 | 0.08 | 0.08 | 95 | 1017.1 |
| 20260906144521 | 55 | 118 | 0.0 | 0.0 | 0.03 | 0.06 | 0.06 | 95 | 1017.0 |
| 20260906143024 | 55 | 341 | 0.0 | 0.0 | 0.02 | 0.05 | 0.05 | 95 | 1016.7 |
| 20260906141531 | 55 | 341 | 0.0 | 0.0 | 0.01 | 0.04 | 0.04 | 95 | 1016.5 |
| 20260906140031 | 55 | 341 | 0.0 | 0.0 | 0.02 | 0.04 | 0.04 | 95 | 1016.2 |
| 20260906134520 | 55 | 293 | 0.0 | 4.0 | 0.02 | 0.03 | 0.03 | 95 | 1016.2 |
| 20260906133035 | 55 | 123 | 0.0 | 0.0 | 0.02 | 0.03 | 0.03 | 95 | 1016.0 |
| 20260906131529 | 55 | 207 | 0.0 | 0.0 | 0.02 | 0.03 | 0.03 | 95 | 1015.9 |
| 20260906130008 | 55 | 207 | 0.0 | 0.0 | 0.01 | 0.02 | 0.02 | 95 | 1016.0 |
| 20260906124515 | 55 | 207 | 0.0 | 0.0 | 0.00 | 0.01 | 0.01 | 95 | 1016.0 |
| 20260906123033 | 55 | 207 | 0.0 | 0.0 | 0.00 | 0.01 | 0.01 | 94 | 1016.2 |
| 20260906121529 | 55 | 225 | 0.0 | 0.0 | 0.00 | 0.01 | 0.01 | 94 | 1016.2 |
| 20260906120010 | 55 | 219 | 0.0 | 0.0 | 0.00 | 0.01 | 0.01 | 94 | 1016.3 |
| 20260906114532 | 55 | 5 | 0.0 | 0.0 | 0.01 | 0.01 | 0.01 | 94 | 1016.2 |
| 20260906113026 | 55 | 13 | 0.0 | 0.0 | 0.01 | 0.01 | 0.01 | 94 | 1016.2 |
| 20260906111529 | 55 | 106 | 0.0 | 0.0 | 0.01 | 0.01 | 0.01 | 93 | 1016.0 |
| 20260906110029 | 55 | 352 | 0.0 | 3.0 | 0.01 | 0.01 | 0.01 | 93 | 1016.0 |
| 20260906104514 | 55 | 213 | 0.0 | 0.0 | 0.00 | 0.00 | 0.00 | 94 | 1016.0 |
| 20260906103019 | 55 | 218 | 0.0 | 0.0 | 0.00 | 0.00 | 0.00 | 94 | 1015.9 |
| 20260906101523 | 54 | 223 | 0.0 | 2.0 | 0.00 | 0.00 | 0.00 | 94 | 1015.9 |
| 20260906100031 | 54 | 225 | 0.0 | 0.0 | 0.00 | 0.00 | 0.00 | 94 | 1015.9 |
| 20260906094529 | 54 | 225 | 0.0 | 0.0 | 0.00 | 0.00 | 0.00 | 94 | 1016.0 |
| 20260906093016 | 54 | 227 | 0.0 | 0.0 | 0.00 | 0.00 | 0.00 | 93 | 1015.9 |
| 20260906091531 | 54 | 227 | 0.0 | 0.0 | 0.00 | 0.00 | 0.00 | 94 | 1015.8 |
| 20260906090027 | 54 | 225 | 0.0 | 0.0 | 0.00 | 0.00 | 0.00 | 93 | 1015.8 |
| 20260906084535 | 54 | 236 | 0.0 | 0.0 | 0.00 | 0.00 | 0.00 | 93 | 1015.8 |
| 20260906083032 | 54 | 236 | 0.0 | 0.0 | 0.00 | 0.00 | 0.00 | 93 | 1015.8 |
| 20260906081521 | 54 | 236 | 0.0 | 0.0 | 0.00 | 0.00 | 0.00 | 93 | 1015.7 |
| 20260906080022 | 54 | 236 | 0.0 | 0.0 | 0.00 | 0.00 | 0.00 | 93 | 1015.8 |
| 20260906074530 | 54 | 236 | 0.0 | 2.0 | 0.00 | 0.00 | 0.00 | 93 | 1015.8 |
| 20260906073030 | 54 | 244 | 0.0 | 0.0 | 0.00 | 0.00 | 0.00 | 93 | 1016.0 |
| 20260906071533 | 55 | 248 | 0.0 | 2.0 | 0.00 | 0.00 | 0.00 | 93 | 1016.1 |
| 20260906070025 | 55 | 249 | 0.0 | 0.0 | 0.00 | 0.00 | 0.00 | 92 | 1016.2 |
| 20260906064528 | 55 | 257 | 0.0 | 0.0 | 0.00 | 0.00 | 0.00 | 92 | 1016.2 |
| 20260906063031 | 55 | 219 | 0.0 | 0.0 | 0.00 | 0.00 | 0.00 | 92 | 1016.2 |
| 20260906061534 | 55 | 208 | 0.0 | 0.0 | 0.00 | 0.00 | 0.00 | 92 | 1016.2 |
| 20260906060019 | 55 | 208 | 0.0 | 0.0 | 0.00 | 0.00 | 0.00 | 91 | 1016.1 |
| 20260906054528 | 55 | 208 | 0.0 | 0.0 | 0.00 | 0.00 | 0.00 | 91 | 1016.3 |
| 20260906053032 | 55 | 208 | 0.0 | 0.0 | 0.00 | 0.00 | 0.00 | 90 | 1016.3 |
| 20260906051530 | 56 | 209 | 0.0 | 2.0 | 0.00 | 0.00 | 0.00 | 90 | 1016.3 |
| 20260906050037 | 56 | 242 | 0.0 | 2.0 | 0.00 | 0.00 | 0.00 | 90 | 1016.4 |
| 20260906044525 | 56 | 250 | 0.0 | 2.0 | 0.00 | 0.00 | 0.00 | 89 | 1016.5 |
| 20260906043009 | 57 | 244 | 0.0 | 2.0 | 0.00 | 0.00 | 0.00 | 89 | 1016.6 |
| 20260906041510 | 57 | 234 | 0.0 | 0.0 | 0.00 | 0.00 | 0.00 | 89 | 1016.6 |
| 20260906040026 | 57 | 237 | 0.0 | 0.0 | 0.00 | 0.00 | 0.00 | 88 | 1016.5 |
| 20260906034527 | 58 | 216 | 2.0 | 4.0 | 0.00 | 0.00 | 0.00 | 87 | 1016.4 |
| 20260906033025 | 58 | 244 | 0.0 | 3.0 | 0.00 | 0.00 | 0.00 | 86 | 1016.3 |
| 20260906031508 | 59 | 253 | 1.0 | 3.0 | 0.00 | 0.00 | 0.00 | 85 | 1016.1 |
| 20260906030009 | 60 | 220 | 1.0 | 3.0 | 0.00 | 0.00 | 0.00 | 83 | 1016.2 |
| 20260906024518 | 61 | 246 | 1.0 | 3.0 | 0.00 | 0.00 | 0.00 | 82 | 1016.2 |
| 20260906023023 | 62 | 215 | 2.0 | 4.0 | 0.00 | 0.00 | 0.00 | 80 | 1016.3 |
| 20260906021531 | 63 | 226 | 0.0 | 2.0 | 0.00 | 0.00 | 0.00 | 76 | 1016.4 |
| 20260906020009 | 64 | 208 | 1.0 | 3.0 | 0.00 | 0.00 | 0.00 | 73 | 1016.4 |
| 20260906014519 | 65 | 217 | 0.0 | 2.0 | 0.00 | 0.00 | 0.00 | 72 | 1016.4 |
| 20260906013020 | 66 | 211 | 0.0 | 2.0 | 0.00 | 0.00 | 0.00 | 70 | 1016.2 |
| 20260906011525 | 67 | 170 | 0.0 | 0.0 | 0.00 | 0.00 | 0.00 | 69 | 1016.2 |
| 20260906010006 | 68 | 96 | 0.0 | 0.0 | 0.00 | 0.00 | 0.00 | 68 | 1016.2 |
| 20260906004511 | 68 | 76 | 0.0 | 3.0 | 0.00 | 0.00 | 0.00 | 61 | 1016.2 |
| 20260906003022 | 68 | 297 | 0.0 | 3.0 | 0.00 | 0.00 | 0.00 | 62 | 1016.2 |
| 20260906001535 | 67 | 188 | 0.0 | 1.0 | 0.00 | 0.00 | 0.00 | 69 | 1016.3 |
| 20260906000030 | 67 | 232 | 0.0 | 3.0 | 0.00 | 0.00 | 0.00 | 64 | 1016.2 |
| 20260905234508 | 69 | 243 | 2.0 | 5.0 | 0.00 | 0.00 | 0.00 | 62 | 1016.2 |
| 20260905233018 | 68 | 178 | 0.0 | 4.0 | 0.00 | 0.00 | 0.00 | 65 | 1016.2 |
| 20260905231532 | 68 | 211 | 1.0 | 4.0 | 0.00 | 0.00 | 0.00 | 65 | 1016.4 |
| 20260905230031 | 69 | 178 | 0.0 | 7.0 | 0.00 | 0.00 | 0.00 | 62 | 1016.5 |
| 20260905224531 | 70 | 327 | 0.0 | 4.0 | 0.00 | 0.00 | 0.00 | 59 | 1016.6 |
| 20260905223016 | 70 | 190 | 2.0 | 5.0 | 0.00 | 0.01 | 0.00 | 60 | 1016.7 |
| 20260905221523 | 70 | 211 | 1.0 | 3.0 | 0.00 | 0.01 | 0.00 | 61 | 1016.8 |
| 20260905220030 | 70 | 261 | 2.0 | 4.0 | 0.00 | 0.01 | 0.00 | 62 | 1017.0 |
| 20260905214531 | 68 | 234 | 1.0 | 3.0 | 0.00 | 0.03 | 0.00 | 65 | 1017.0 |
| 20260905213011 | 67 | 204 | 1.0 | 4.0 | 0.00 | 0.03 | 0.00 | 64 | 1017.2 |
| 20260905211516 | 68 | 312 | 0.0 | 2.0 | 0.00 | 0.03 | 0.00 | 65 | 1017.3 |
| 20260905210026 | 66 | 124 | 0.0 | 3.0 | 0.00 | 0.03 | 0.00 | 70 | 1017.5 |
| 20260905204526 | 65 | 313 | 0.0 | 3.0 | 0.00 | 0.03 | 0.00 | 69 | 1017.6 |
| 20260905203032 | 64 | 232 | 2.0 | 3.0 | 0.00 | 0.05 | 0.00 | 72 | 1017.6 |
| 20260905201516 | 64 | 350 | 1.0 | 2.0 | 0.00 | 0.07 | 0.00 | 74 | 1017.7 |
| 20260905200026 | 63 | 211 | 1.0 | 3.0 | 0.00 | 0.07 | 0.00 | 76 | 1017.7 |
| 20260905194527 | 63 | 103 | 0.0 | 4.0 | 0.00 | 0.07 | 0.00 | 76 | 1017.9 |
| 20260905193034 | 62 | 236 | 0.0 | 1.0 | 0.00 | 0.07 | 0.00 | 80 | 1018.0 |
| 20260905191511 | 61 | 235 | 2.0 | 5.0 | 0.00 | 0.07 | 0.00 | 81 | 1018.1 |
| 20260905190030 | 61 | 236 | 2.0 | 4.0 | 0.00 | 0.07 | 0.00 | 81 | 1018.1 |
| 20260905184506 | 61 | 328 | 0.0 | 3.0 | 0.00 | 0.07 | 0.00 | 80 | 1018.1 |
| 20260905183012 | 60 | 352 | 1.0 | 3.0 | 0.00 | 0.07 | 0.00 | 81 | 1018.3 |
| 20260905181513 | 60 | 199 | 0.0 | 2.0 | 0.00 | 0.07 | 0.00 | 85 | 1018.3 |
| 20260905180022 | 60 | 344 | 0.0 | 3.0 | 0.00 | 0.07 | 0.00 | 85 | 1018.3 |
| 20260905174527 | 59 | 68 | 0.0 | 3.0 | 0.00 | 0.09 | 0.00 | 86 | 1018.2 |
| 20260905173006 | 59 | 268 | 0.0 | 2.0 | 0.00 | 0.09 | 0.00 | 87 | 1018.2 |